Location: Lansingburgh
(42.7845°N, 73.6696°W)
Time: 06:20:56
(UTC+00:00)

Envisat - Pass Details

Date: 24 January 2020
Orbit: 764 x 766 km, 98.1° (Epoch: 17 February)

Event Time Altitude Azimuth Distance (km) Brightness Sun altitude
Rises 23:04:24 0° 178° (S) 3,218 6.4 -12.5°
Reaches altitude 10° 23:06:44 10° 182° (S) 2,296 5.7 -12.9°
Maximum altitude 23:11:41 54° 260° (W) 926 3.8 -13.8°
Drops below altitude 10° 23:16:41 10° 338° (NNW) 2,312 5.6 -14.6°
Sets 23:19:03 0° 343° (NNW) 3,242 6.3 -15.1°
